VTK601 UWKD-USSS

Flight info

Callsign VTK601
Flight time N/A
Altitude 39000
Route RIMIP1G RIMIP L94 LOMBI LOMBI6S
Aircraft A388/J-SADE2E3FGHIJ3J4J5M1RWXY/LB1D1

Departure

Time 2026-05-04 07:49
Airport Kazan International Airport (UWKD)

Arrival

Time N/A
Airport Koltsovo Airport (USSS)
Time Latitude Longitude Altitude Speed Heading
2026-05-04 07:33 55.60668 49.29649 421 ft 0 kts 35°
2026-05-04 07:44 55.60671 49.29652 421 ft 4 kts 35°
2026-05-04 07:44 55.60727 49.29650 415 ft 13 kts 334°
2026-05-04 07:44 55.60807 49.29487 413 ft 20 kts 281°
2026-05-04 07:44 55.60748 49.29364 418 ft 17 kts 217°
2026-05-04 07:45 55.60635 49.29207 414 ft 24 kts 214°
2026-05-04 07:45 55.60576 49.28971 413 ft 23 kts 273°
2026-05-04 07:45 55.60595 49.28665 421 ft 27 kts 286°
2026-05-04 07:45 55.60690 49.28361 411 ft 30 kts 304°
2026-05-04 07:46 55.60816 49.28044 411 ft 33 kts 305°
2026-05-04 07:46 55.60946 49.27701 413 ft 35 kts 304°
2026-05-04 07:46 55.61085 49.27343 413 ft 36 kts 305°
2026-05-04 07:46 55.61231 49.26972 413 ft 37 kts 304°
2026-05-04 07:47 55.61379 49.26590 416 ft 38 kts 304°
2026-05-04 07:47 55.61530 49.26201 414 ft 39 kts 304°
2026-05-04 07:47 55.61677 49.25822 415 ft 36 kts 304°
2026-05-04 07:49 55.60400 49.28556 870 ft 158 kts 125°
2026-05-04 07:49 55.59781 49.30169 1479 ft 161 kts 128°
2026-05-04 07:49 55.59116 49.31805 2136 ft 167 kts 127°
2026-05-04 07:50 55.58422 49.33589 2514 ft 189 kts 127°
2026-05-04 07:50 55.57626 49.35601 2970 ft 208 kts 127°
2026-05-04 07:50 55.56772 49.37766 3238 ft 223 kts 126°
2026-05-04 07:50 55.55857 49.40101 3425 ft 242 kts 126°
2026-05-04 07:51 55.54861 49.42706 3839 ft 266 kts 119°
2026-05-04 07:51 55.54367 49.45887 4553 ft 275 kts 89°
2026-05-04 07:51 55.54779 49.49118 5712 ft 268 kts 62°
2026-05-04 07:51 55.55696 49.51979 6800 ft 268 kts 57°
2026-05-04 07:52 55.56570 49.54913 7758 ft 274 kts 63°
2026-05-04 07:52 55.57256 49.58102 8653 ft 281 kts 69°
2026-05-04 07:52 55.57778 49.61469 9602 ft 288 kts 73°
2026-05-04 07:52 55.58218 49.64970 10391 ft 298 kts 75°
2026-05-04 07:53 55.58501 49.67399 10621 ft 313 kts 76°
2026-05-04 07:54 55.61786 49.96617 15361 ft 361 kts 76°
2026-05-04 07:55 55.62277 50.01001 16075 ft 365 kts 76°
2026-05-04 07:55 55.62783 50.05419 16748 ft 368 kts 74°
2026-05-04 07:55 55.63555 50.09743 17439 ft 369 kts 66°
2026-05-04 07:55 55.64583 50.13920 18075 ft 373 kts 64°
2026-05-04 07:56 55.65619 50.18153 18670 ft 376 kts 64°
2026-05-04 07:56 55.66641 50.22374 19250 ft 379 kts 65°
2026-05-04 07:56 55.67680 50.26683 19825 ft 382 kts 65°
2026-05-04 07:56 55.68724 50.31032 20372 ft 385 kts 65°
2026-05-04 07:57 55.69776 50.35415 20932 ft 388 kts 65°
2026-05-04 07:57 55.70836 50.39836 21504 ft 391 kts 65°
2026-05-04 07:57 55.71904 50.44302 22058 ft 394 kts 65°
2026-05-04 07:57 55.72976 50.48796 22575 ft 397 kts 65°
2026-05-04 07:58 55.74059 50.53338 23122 ft 401 kts 65°
2026-05-04 07:58 55.75150 50.57924 23621 ft 405 kts 65°
2026-05-04 07:58 55.76245 50.62544 24086 ft 407 kts 65°
2026-05-04 07:58 55.77345 50.67194 24537 ft 410 kts 65°
2026-05-04 07:59 55.78452 50.71884 24999 ft 413 kts 65°
2026-05-04 07:59 55.79552 50.76547 25468 ft 416 kts 65°
2026-05-04 07:59 55.80671 50.81303 25953 ft 419 kts 65°
2026-05-04 07:59 55.81798 50.86107 26454 ft 422 kts 65°
2026-05-04 08:00 55.82929 50.90945 26971 ft 426 kts 65°
2026-05-04 08:00 55.84072 50.95835 27494 ft 430 kts 65°
2026-05-04 08:00 55.85222 51.00768 28049 ft 433 kts 65°
2026-05-04 08:02 55.93504 51.36628 31601 ft 460 kts 66°
2026-05-04 08:02 55.94718 51.41945 32045 ft 464 kts 66°
2026-05-04 08:02 55.95937 51.47296 32487 ft 468 kts 66°
2026-05-04 08:03 55.97168 51.52711 32925 ft 472 kts 66°
2026-05-04 08:03 55.98407 51.58172 33316 ft 477 kts 66°
2026-05-04 08:03 55.99655 51.63688 33755 ft 481 kts 66°
2026-05-04 08:03 56.00894 51.69184 34140 ft 485 kts 67°
2026-05-04 08:04 56.02165 51.74871 34472 ft 489 kts 68°
2026-05-04 08:04 56.03183 51.80633 34819 ft 494 kts 74°
2026-05-04 08:04 56.03885 51.86656 35296 ft 496 kts 80°
2026-05-04 08:04 56.04260 51.92887 35755 ft 499 kts 86°
2026-05-04 08:05 56.04453 51.99001 36221 ft 499 kts 85°
2026-05-04 08:05 56.04676 52.05202 36680 ft 500 kts 85°
2026-05-04 08:05 56.04904 52.11430 37151 ft 502 kts 85°
2026-05-04 08:05 56.05125 52.17683 37587 ft 504 kts 86°
2026-05-04 08:06 56.05338 52.23935 38027 ft 505 kts 86°
2026-05-04 08:06 56.05547 52.30234 38495 ft 506 kts 86°
2026-05-04 08:06 56.05752 52.36523 38842 ft 508 kts 86°
2026-05-04 08:06 56.05954 52.42870 38933 ft 513 kts 86°
2026-05-04 08:08 56.07356 52.93532 38938 ft 510 kts 87°
2026-05-04 08:11 56.08625 53.50734 38942 ft 511 kts 88°
2026-05-04 08:11 56.08993 53.69804 38936 ft 511 kts 88°
2026-05-04 08:12 56.09221 53.82541 38933 ft 511 kts 88°
2026-05-04 08:12 56.09440 53.95247 38932 ft 511 kts 88°
2026-05-04 08:13 56.09644 54.07964 38929 ft 511 kts 88°
2026-05-04 08:13 56.09834 54.20605 38935 ft 511 kts 88°
2026-05-04 08:14 56.10045 54.33333 38916 ft 511 kts 86°
2026-05-04 08:16 56.14270 54.83709 38916 ft 512 kts 81°
2026-05-04 08:16 56.15331 54.96340 38912 ft 513 kts 81°
2026-05-04 08:17 56.16381 55.08985 38911 ft 513 kts 81°
2026-05-04 08:17 56.17418 55.21647 38909 ft 513 kts 82°
2026-05-04 08:19 56.21437 55.72325 38899 ft 513 kts 82°
2026-05-04 08:20 56.22416 55.85040 38883 ft 513 kts 82°
2026-05-04 08:20 56.23378 55.97760 38886 ft 514 kts 82°
2026-05-04 08:21 56.24332 56.10491 38883 ft 514 kts 82°
2026-05-04 08:21 56.25273 56.23245 38886 ft 515 kts 82°
2026-05-04 08:22 56.26198 56.36007 38886 ft 515 kts 82°
2026-05-04 08:24 56.29795 56.87228 38888 ft 517 kts 83°
2026-05-04 08:24 56.30664 57.00056 38888 ft 516 kts 83°
2026-05-04 08:25 56.31521 57.12900 38889 ft 516 kts 83°
2026-05-04 08:25 56.32365 57.25758 38871 ft 517 kts 83°
2026-05-04 08:27 56.33396 57.41791 38880 ft 518 kts 84°